Погода в Броумове

Чехия     50°35′06″N   16°19′59″E
темп.,
°C
ветер,
м/с
пор.,
м/с
влажн.,
%
обл.,
%
осадки,
мм/ч
давл.,
гПа
погр.,
м
19 апреля, пн
пн1923:00+3св2296100 0.0 102136
02:00+3ссв2296100 0.0 102036
05:00+4с2391100 0.0 101970
08:00+5ссв2582100 0.0 1019343
11:00+7ссв3480100 0.1 1019846
14:00+5ссз2491100 1.8 1019433
17:00+8с2586100 0.1 1017542
20:00+6ссв2293100 0.3 101712
20 апреля, вт
вт2023:00+5с119377 0.0 101719
02:00+4ссв22925 0.0 101712
05:00+3ссв119489 0.0 101711
08:00+8с117737 0.1 101685
11:00+11всв235277 0.1 10151678
14:00+12св115369 0.3 10151370
17:00+12ссз115661 0.8 10131124
20:00+7ююв117742 1.7 101410
21 апреля, ср
ср2123:00+6ююв118483 0.0 101510
02:00+5юз118951 0.0 101512
05:00+4юз119521 0.0 101416
08:00+6юз128912 0.0 1015189
11:00+10зюз34724 0.3 1014832
14:00+14з56415 0.5 10122184
17:00+13зсз464248 0.0 10112190
20:00+7ссз227043 0.0 101215
22 апреля, чт
чт2223:00+5с11745 0.0 101310
02:00+3ссв118895 0.0 101410
05:00+4ююз1188100 0.0 1014156
08:00+4зюз3576100 0.1 1015555
11:00+6зюз5547100 0.0 10161245
14:00+7з6841100 0.0 10152076
17:00+8з684196 0.0 10152256
20:00+3зсз346426 0.0 101768
23 апреля, пт
пт2323:000зюз258213 0.0 1018107
02:00−1юз269066 0.0 1019163
05:00−2юз119611 0.0 102022
08:00+1з248087 0.0 1022582
11:00+4з2468100 0.2 10221088
14:00+6сз3463100 0.4 10231221
17:00+6ссз465789 0.2 10241369
20:00+2ссз227654 0.3 102512